Weather in Nurma

Russia / Mari El Republic     56°42′30″N   47°42′40″E
temp.,
°C
wind,
m/s
gust,
m/s
humid.,
%
clouds,
%
prec.,
mm/h
press.,
hPa
HPBL,
m
27 february, sat
sat2700:00−12se51294100 4.8 999606
03:00−13ese4994100 6.7 998425
06:00−13ene4993100 0.2 998474
09:00−14ne5993100 0.6 999488
12:00−13ne5989100 0.2 1001648
15:00−13nne5989100 0.3 1004692
18:00−14n41091100 0.0 1006513
21:00−16n4109497 0.1 1007318
28 february, sun
sun2800:00−17n499593 0.0 1008237
03:00−19nnw499559 0.0 1009220
06:00−21n379743 0.0 1010169
09:00−18n379355 0.0 1011269
12:00−14n369070 0.0 1011408
15:00−12n478876 0.0 1013530
18:00−16n239598 0.0 101445
21:00−19n239778 0.0 101724
1 march, mon
mon100:00−20n23980 0.0 101822
03:00−21nnw23980 0.0 102021
06:00−22n22984 0.0 102120
09:00−18wnw11932 0.0 1022117
12:00−12w238653 0.0 1021377
15:00−10sw359176 0.0 1020437
18:00−12ssw3896100 0.1 1017237
21:00−11ssw4996100 0.1 1015284
2 march, tue
tue200:00−9ssw51095100 0.3 1010410
03:00−7ssw61294100 1.5 1006540
06:00−4ssw51295100 1.4 1001558
09:00−1sw4997100 2.7 999483
12:000w47100100 0.8 997508
15:000w37100100 1.2 997483
18:000nnw61295100 1.4 998806
21:00−3nw3992100 1.6 999272
3 march, wed
wed300:00−6nw389752 0.0 1000161
03:00−6nw369769 0.1 1001175
06:00−6nw379697 0.1 1001223
09:00−4nnw379598 0.6 1003363
12:00−2nnw5991100 0.3 1005845
15:00−4nnw5108299 0.4 1007909
18:00−6nw412898 0.0 1008435
21:00−8nw4129239 0.0 1010522